カタログに戻る

CZ-6A DEB

運用中PO
NORAD 61410·DEBRIS·🇨🇳 China

打ち上げ Aug 6, 2024 から Taiyuan Satellite Launch Center

Loading…

次のパス (今後24時間)

TLE

最新Source: Space-Track

元期: Sep 14, 2026, 11:33 UTC

1 61410U 24140YB  26257.48132800  .00000176  00000-0  76660-4 0  9994
2 61410  88.9922 264.4584 0044546 248.3147 111.3297 14.19068208104139

AllMySatでCZ-6A DEBをリアルタイム追跡

Download on the App Store